• In Hungary
  • List of Countries
  • For 7 days
  • Water Temperature
  • Satellite Maps
  • Weather Map
  • News
  • Weather Widgets
  • user-avatar
    Login

    Hourly Weather Weinheim

    Today, 11 December, Monday

    Time Temperature Precipitation Wind Pressure Humidity
    00:00 +5°C° 0.3 mm 6 mps 726 mmHg 87%
    01:00 +6°C° 0 mm 5 mps 727 mmHg 87%
    02:00 +5°C° 0.1 mm 4 mps 727 mmHg 89%
    03:00 +5°C° 0.1 mm 3 mps 727 mmHg 91%
    04:00 +5°C° 0.1 mm 2 mps 727 mmHg 94%
    05:00 +5°C° 0.7 mm 2 mps 726 mmHg 95%
    06:00 +5°C° 0.7 mm 2 mps 726 mmHg 95%
    07:00 +4°C° 0.7 mm 2 mps 725 mmHg 96%
    08:00 +5°C° 3.1 mm 2 mps 725 mmHg 95%
    09:00 +4°C° 3.1 mm 3 mps 724 mmHg 94%
    10:00 +4°C° 3.1 mm 3 mps 724 mmHg 93%
    11:00 +4°C° 1.7 mm 3 mps 724 mmHg 92%
    12:00 +4°C° 1.7 mm 3 mps 724 mmHg 91%
    13:00 +4°C° 1.7 mm 3 mps 724 mmHg 89%
    14:00 +4°C° 1.1 mm 3 mps 724 mmHg 91%
    15:00 +5°C° 1.1 mm 3 mps 725 mmHg 92%
    16:00 +5°C° 1.1 mm 3 mps 725 mmHg 94%
    17:00 +5°C° 0.6 mm 3 mps 726 mmHg 91%
    18:00 +5°C° 0.6 mm 4 mps 726 mmHg 88%
    19:00 +5°C° 0.6 mm 4 mps 727 mmHg 86%
    20:00 +5°C° 0.1 mm 4 mps 727 mmHg 83%
    21:00 +5°C° 0.1 mm 4 mps 728 mmHg 80%
    22:00 +5°C° 0.1 mm 4 mps 728 mmHg 78%
    23:00 +5°C° 0 mm 5 mps 728 mmHg 78%

    Tomorrow, 12 December, Tuesday

    Time Temperature Precipitation Wind Pressure Humidity
    00:00 +5°C° 0 mm 5 mps 729 mmHg 77%
    01:00 +4°C° 0 mm 6 mps 729 mmHg 77%
    02:00 +3°C° 0 mm 6 mps 730 mmHg 77%
    03:00 +3°C° 0 mm 7 mps 732 mmHg 77%
    04:00 +2°C° 0 mm 7 mps 733 mmHg 77%
    05:00 +2°C° 0 mm 7 mps 734 mmHg 77%
    06:00 +2°C° 0 mm 7 mps 736 mmHg 78%
    07:00 +2°C° 0 mm 7 mps 738 mmHg 79%
    08:00 +2°C° 0 mm 6 mps 740 mmHg 78%
    09:00 +2°C° 0 mm 6 mps 741 mmHg 77%
    10:00 +2°C° 0 mm 6 mps 743 mmHg 77%
    11:00 +2°C° 0 mm 6 mps 744 mmHg 76%
    12:00 +2°C° 0 mm 5 mps 744 mmHg 74%
    13:00 +3°C° 0 mm 5 mps 745 mmHg 73%
    14:00 +2°C° 0 mm 5 mps 746 mmHg 74%
    15:00 +2°C° 0 mm 5 mps 747 mmHg 76%
    16:00 +3°C° 0 mm 4 mps 747 mmHg 77%
    17:00 +1°C° 0 mm 4 mps 748 mmHg 78%
    18:00 +1°C° 0 mm 4 mps 749 mmHg 79%
    19:00 +1°C° 0 mm 4 mps 749 mmHg 80%
    20:00 0°C° 0 mm 4 mps 750 mmHg 81%
    21:00 0°C° 0 mm 4 mps 751 mmHg 83%
    22:00 0°C° 0 mm 3 mps 751 mmHg 85%
    23:00 0°C° 0 mm 3 mps 752 mmHg 86%

    Day after tomorrow, 13 December, Wednesday

    Time Temperature Precipitation Wind Pressure Humidity
    00:00 0°C° 0 mm 3 mps 752 mmHg 87%
    01:00 0°C° 0 mm 3 mps 752 mmHg 88%
    02:00 0°C° 0 mm 3 mps 752 mmHg 87%
    03:00 0°C° 0 mm 3 mps 751 mmHg 87%
    04:00 0°C° 0 mm 3 mps 751 mmHg 87%
    05:00 0°C° 0 mm 3 mps 751 mmHg 86%
    06:00 -1°C° 0 mm 4 mps 751 mmHg 84%
    07:00 -1°C° 0 mm 4 mps 750 mmHg 83%
    08:00 -1°C° 0 mm 4 mps 750 mmHg 79%
    09:00 0°C° 0 mm 5 mps 750 mmHg 76%
    10:00 0°C° 0 mm 5 mps 749 mmHg 72%
    11:00 +1°C° 0.1 mm 5 mps 748 mmHg 70%
    12:00 +2°C° 0.1 mm 5 mps 747 mmHg 68%
    13:00 +3°C° 0.1 mm 5 mps 746 mmHg 66%
    14:00 +2°C° 0.7 mm 5 mps 745 mmHg 70%
    15:00 +2°C° 0.7 mm 5 mps 745 mmHg 74%
    16:00 +2°C° 0.7 mm 5 mps 744 mmHg 78%
    17:00 +2°C° 0.3 mm 5 mps 743 mmHg 79%
    18:00 +3°C° 0.3 mm 6 mps 743 mmHg 80%
    19:00 +3°C° 0.3 mm 6 mps 742 mmHg 82%
    20:00 +3°C° 0.2 mm 6 mps 742 mmHg 82%
    21:00 +3°C° 0.2 mm 6 mps 741 mmHg 83%
    22:00 +4°C° 0.2 mm 6 mps 740 mmHg 84%
    23:00 +4°C° 0 mm 6 mps 740 mmHg 84%

    14 December, Thursday

    Time Temperature Precipitation Wind Pressure Humidity
    00:00 +4°C° 0 mm 6 mps 739 mmHg 84%
    01:00 +4°C° 0 mm 6 mps 739 mmHg 84%
    02:00 +5°C° 0.4 mm 6 mps 739 mmHg 85%
    03:00 +5°C° 0.4 mm 6 mps 738 mmHg 87%
    04:00 +6°C° 0.4 mm 5 mps 738 mmHg 88%
    05:00 +6°C° 0.3 mm 5 mps 738 mmHg 88%
    06:00 +5°C° 0.3 mm 5 mps 738 mmHg 87%
    07:00 +5°C° 0.3 mm 4 mps 738 mmHg 87%
    08:00 +5°C° 0 mm 5 mps 738 mmHg 84%
    09:00 +5°C° 0 mm 5 mps 737 mmHg 82%
    10:00 +4°C° 0 mm 6 mps 737 mmHg 79%
    11:00 +5°C° 0.1 mm 7 mps 736 mmHg 76%
    12:00 +5°C° 0.1 mm 7 mps 735 mmHg 74%
    13:00 +6°C° 0.1 mm 8 mps 735 mmHg 71%
    14:00 +5°C° 1.6 mm 7 mps 734 mmHg 75%
    15:00 +5°C° 1.6 mm 7 mps 734 mmHg 78%
    16:00 +4°C° 1.6 mm 6 mps 733 mmHg 82%
    17:00 +5°C° 0.8 mm 5 mps 734 mmHg 81%
    18:00 +4°C° 0.8 mm 4 mps 735 mmHg 80%
    19:00 +3°C° 0.8 mm 3 mps 736 mmHg 79%
    20:00 +3°C° 0.2 mm 4 mps 736 mmHg 79%
    21:00 +3°C° 0.2 mm 4 mps 737 mmHg 79%
    22:00 +3°C° 0.2 mm 4 mps 737 mmHg 79%
    23:00 +1°C° 0 mm 4 mps 737 mmHg 81%

    15 December, Friday

    Time Temperature Precipitation Wind Pressure Humidity
    00:00 +2°C° 0 mm 3 mps 738 mmHg 82%
    01:00 +2°C° 0 mm 3 mps 738 mmHg 84%
    02:00 +1°C° 0 mm 3 mps 737 mmHg 85%
    03:00 +2°C° 0 mm 2 mps 737 mmHg 87%
    04:00 +2°C° 0 mm 2 mps 737 mmHg 89%
    05:00 +2°C° 0.3 mm 2 mps 737 mmHg 89%
    06:00 +2°C° 0.3 mm 3 mps 737 mmHg 89%
    07:00 +2°C° 0.3 mm 3 mps 737 mmHg 89%
    08:00 +2°C° 0 mm 3 mps 737 mmHg 88%
    09:00 +2°C° 0 mm 3 mps 737 mmHg 87%
    10:00 +2°C° 0 mm 3 mps 737 mmHg 86%
    11:00 +3°C° 0 mm 3 mps 737 mmHg 84%
    12:00 +3°C° 0 mm 3 mps 737 mmHg 81%
    13:00 +4°C° 0 mm 3 mps 736 mmHg 79%
    14:00 +3°C° 0 mm 3 mps 737 mmHg 79%
    15:00 +3°C° 0 mm 3 mps 737 mmHg 80%
    16:00 +3°C° 0 mm 3 mps 737 mmHg 80%
    17:00 +3°C° 0.2 mm 3 mps 737 mmHg 81%
    18:00 +3°C° 0.2 mm 3 mps 737 mmHg 81%
    19:00 +2°C° 0.2 mm 3 mps 737 mmHg 82%
    20:00 +2°C° 0.1 mm 3 mps 737 mmHg 84%
    21:00 +2°C° 0.1 mm 3 mps 737 mmHg 86%
    22:00 +2°C° 0.1 mm 3 mps 737 mmHg 89%
    23:00 +2°C° 0.1 mm 3 mps 738 mmHg 89%

    16 December, Saturday

    Time Temperature Precipitation Wind Pressure Humidity
    00:00 +2°C° 0.1 mm 3 mps 738 mmHg 89%
    01:00 +2°C° 0.1 mm 3 mps 739 mmHg 90%
    02:00 +1°C° 0.1 mm 4 mps 739 mmHg 89%
    03:00 0°C° 0.1 mm 4 mps 740 mmHg 88%
    04:00 0°C° 0.1 mm 4 mps 740 mmHg 87%
    05:00 0°C° 0.2 mm 4 mps 741 mmHg 87%
    06:00 0°C° 0.2 mm 4 mps 742 mmHg 87%
    07:00 0°C° 0.2 mm 4 mps 742 mmHg 88%
    08:00 0°C° 0 mm 4 mps 743 mmHg 87%
    09:00 0°C° 0 mm 4 mps 743 mmHg 87%
    10:00 0°C° 0 mm 4 mps 744 mmHg 87%
    11:00 0°C° 0.7 mm 4 mps 744 mmHg 87%
    12:00 +1°C° 0.7 mm 4 mps 745 mmHg 87%
    13:00 +1°C° 0.7 mm 5 mps 745 mmHg 87%
    14:00 +1°C° 0.4 mm 4 mps 745 mmHg 85%
    15:00 +1°C° 0.4 mm 4 mps 746 mmHg 83%
    16:00 0°C° 0.4 mm 4 mps 746 mmHg 81%
    17:00 0°C° 0 mm 4 mps 747 mmHg 82%
    18:00 -1°C° 0 mm 4 mps 747 mmHg 83%
    19:00 0°C° 0 mm 3 mps 748 mmHg 85%
    20:00 -1°C° 0 mm 3 mps 748 mmHg 85%
    21:00 -1°C° 0 mm 3 mps 748 mmHg 86%
    22:00 -1°C° 0 mm 3 mps 749 mmHg 86%
    23:00 -1°C° 0 mm 3 mps 749 mmHg 87%
    Show more